Regional Weather Roundup
Issued by NWS

Home | Current Version | Previous Version | Graphics & Text | Print | Product List | Glossary On
Versions: 1 2 3 4 5 6 7 8 9 10 11 12 13 14 15 16 17 18 19 20 21 22 23 24 25 26 27 28 29 30 31 32 33 34 35 36 37 38 39 40 41 42 43 44 45 46 47 48 49 50
000
ASUS45 KSLC 200510
RWRUT

UTAH REGIONAL WEATHER ROUNDUP
NATIONAL WEATHER SERVICE SALT LAKE CITY UT
1100 PM MDT SUN APR 19 2015

UTZ001>011-023>025-200600-

NORTHERN UTAH

CITY           SKY/WX    TMP DP  RH WIND       PRES   REMARKS
BRIGHAM CITY   CLEAR     55  24  29 NW3       29.96S
HILL AFB       MOCLDY    53  31  42 E7        29.95F
LOGAN          CLEAR     49  30  48 CALM      29.97R
OGDEN          PTCLDY    51  34  52 CALM      29.94S
PROVO AIRPORT  CLOUDY    55  36  47 N5        29.95S
SALT LAKE CITY CLOUDY    58  30  34 CALM      29.93F
VERNAL         MOCLDY    44  39  82 CALM      29.99F
WENDOVER       MOCLDY    61  19  20 N15       29.95S
HEBER CITY     CLOUDY    46  27  46 SE5       29.98S
WEST JORDAN    CLEAR     52  32  46 CALM      29.96S

$$

UTZ012>022-026-027-200600-

SOUTHERN/CENTRAL UTAH

CITY           SKY/WX    TMP DP  RH WIND       PRES   REMARKS
BLANDING       CLEAR     45  32  60 NE10      30.07S
BRYCE CANYON   CLEAR     31  18  58 SW6       30.07F WCI  25
CEDAR CITY     PTCLDY    51  23  33 S6        29.96S
DELTA          CLOUDY    55  20  25 CALM      29.94S
HANKSVILLE     PTCLDY    54  36  50 N13       29.95F
MILFORD        MOCLDY    49  18  29 NW5       29.94S
MOAB/CYNLANDS  PTCLDY    53  39  59 NE10      29.94F
PRICE          PTCLDY    45  31  58 NE7       29.99F
ST GEORGE      CLOUDY    64  19  17 E8        29.85S

$$

REGIONAL REPORTS     COLORADO/ARIZONA

CITY           SKY/WX    TMP DP  RH WIND       PRES   REMARKS
CRAIG, CO      MOCLDY    35  28  75 NE6       30.00F WCI  30
GRAND JUNCTION CLOUDY    46  43  89 NE7       30.01F
RIFLE          CLOUDY    47  36  65 VRB3      30.02S
MONTROSE       MOCLDY    46  37  71 CALM      30.03F
CORTEZ         PTCLDY    39  29  67 NE7       30.02F WCI  34
PAGE, AZ       PTCLDY    62  26  25 CALM      29.92S
GRAND CANYON   PTCLDY    39  18  42 CALM      30.06S
KINGMAN        CLEAR     66  14  13 S13       29.89S
FLAGSTAFF      CLEAR     36  29  75 CALM      30.09F

$$

REGIONAL REPORTS    NEVADA/IDAHO/WYOMING

CITY           SKY/WX    TMP DP  RH WIND       PRES   REMARKS
LAS VEGAS, NV  MOCLDY    80  15   8 SW13      29.75S
ELY            MOCLDY    48   6  18 W9        30.02S
ELKO           MOCLDY    54  20  26 E5        29.99S
POCATELLO, ID  CLEAR     49  24  37 SW9       29.97F
BURLEY         CLEAR     43  30  60 SW9       29.96S
EVANSTON, WY   PTCLDY    43  21  41 NW6       30.04S
ROCK SPRINGS   CLOUDY    37  32  82 NE15      30.03R WCI  28
KEMMERER       CLEAR     36  21  55 NW9       30.03S WCI  29

$$


USA.gov is the U.S. government's official web portal to all federal, state and local government web resources and services.